Weather History for Cozumel, Mexico

Change the Weather History Date:

Tuesday, August 19, 2014

  Actual Average Record
Temperature  
Mean Temperature 78 °F -  
Max Temperature 87 °F 89 °F 95 °F (2008)
Min Temperature 69 °F 76 °F 69 °F (2014)
Cooling Degree Days 13    
Growing Degree Days 28 (Base 50)    
Moisture  
Dew Point 75 °F    
Average Humidity 87    
Maximum Humidity 100    
Minimum Humidity 66    
Precipitation  
Precipitation 0.00 in - - ()
Sea Level Pressure  
Sea Level Pressure 29.98 in    
Wind  
Wind Speed 5 mph ()    
Max Wind Speed 17 mph    
Max Gust Speed 23 mph    
Visibility 7.5 miles    
Events      
Averages and records for this station are not official NWS values.
T = Trace of Precipitation, MM = Missing Value Source: Averaged Metar Reports

Daily Weather History Graph

Daily Weather History Graph

Search for Another Location

Airport:

Trip Planner

Search our weather history database for the weather conditions in past years. The results will help you decide how hot, cold, wet, or windy it might be!

Date:

Astronomy

Aug. 19, 2014 Rise Set
Actual Time 6:28 AM CDT 7:13 PM CDT
Civil Twilight 6:05 AM CDT 7:36 PM CDT
Nautical Twilight 5:38 AM CDT 8:03 PM CDT
Astronomical Twilight 5:11 AM CDT 8:30 PM CDT
Moon 1:32 AM CDT (8/19) 2:56 PM CDT (8/19)
Length of Visible Light 13h 31m
Length of Day
12h 45m
Waning Crescent, 29% of the Moon is Illuminated
Aug 19
Waning Crescent
Aug 25
New
Sep 2
First Quarter
Sep 8
Full
Sep 15
Last Quarter

Hourly Weather History & Observations

Time (CDT) Temp. Heat Index Dew Point Humidity Pressure Visibility Wind Dir Wind Speed Gust Speed Precip Events Conditions
12:40 AM 75.2 °F - 73.4 °F 94% 29.98 in 7.0 mi Calm Calm - N/A   Scattered Clouds
1:41 AM 73.4 °F - 73.4 °F 100% 29.97 in 7.0 mi Calm Calm - N/A   Scattered Clouds
2:56 AM 75.2 °F - 69.8 °F 83% 29.98 in 7.0 mi SE 17.3 mph - N/A   Scattered Clouds
3:48 AM 69.8 °F - 69.8 °F 100% 29.99 in 7.0 mi SE 11.5 mph 23.0 mph N/A   Mostly Cloudy
5:09 AM 69.8 °F - 69.8 °F 100% 29.92 in 7.0 mi South 11.5 mph - N/A   Mostly Cloudy
5:48 AM 71.6 °F - 71.6 °F 100% 29.92 in 7.0 mi Calm Calm - N/A   Mostly Cloudy
6:46 AM 69.8 °F - 69.8 °F 100% 29.94 in 7.0 mi Calm Calm - N/A   Mostly Cloudy
7:48 AM 75.2 °F - 75.2 °F 100% 29.99 in 8.0 mi Calm Calm - N/A   Mostly Cloudy
8:52 AM 82.4 °F 96.1 °F 82.4 °F 100% 30.00 in 8.0 mi ESE 10.4 mph - N/A   Scattered Clouds
9:55 AM 84.2 °F 94.1 °F 77.0 °F 79% 30.03 in 8.0 mi ESE 8.1 mph - N/A   Mostly Cloudy
10:54 AM 86.0 °F 95.1 °F 75.2 °F 70% 30.01 in 8.0 mi SE 6.9 mph - N/A   Mostly Cloudy
11:51 AM 86.0 °F 96.9 °F 77.0 °F 74% 30.00 in 8.0 mi East 11.5 mph - N/A   Mostly Cloudy
12:45 PM 87.8 °F 97.6 °F 75.2 °F 66% 29.98 in 8.0 mi SE 8.1 mph - N/A   Mostly Cloudy
1:49 PM 87.8 °F 99.7 °F 77.0 °F 70% 29.98 in 8.0 mi East 8.1 mph - N/A   Mostly Cloudy
2:45 PM 86.0 °F 96.9 °F 77.0 °F 74% 29.97 in 8.0 mi East 10.4 mph - N/A   Mostly Cloudy
3:49 PM 87.8 °F 97.6 °F 75.2 °F 66% 29.99 in 8.0 mi SE 11.5 mph - N/A   Scattered Clouds
4:43 PM 87.8 °F 97.6 °F 75.2 °F 66% 29.96 in 8.0 mi East 8.1 mph - N/A   Scattered Clouds
5:40 PM 84.2 °F 92.3 °F 75.2 °F 74% 29.96 in 8.0 mi ESE 9.2 mph - N/A   Mostly Cloudy
6:40 PM 82.4 °F 89.5 °F 75.2 °F 79% 29.97 in 8.0 mi ESE 8.1 mph - N/A   Mostly Cloudy
7:43 PM 78.8 °F - 75.2 °F 89% 29.97 in 7.0 mi ESE 4.6 mph - N/A   Scattered Clouds
8:43 PM 77.0 °F - 75.2 °F 94% 29.98 in 7.0 mi Calm Calm - N/A   Scattered Clouds
9:49 PM 75.2 °F - 75.2 °F 100% 30.03 in 7.0 mi Calm Calm - N/A   Scattered Clouds
10:50 PM 75.2 °F - 75.2 °F 100% 30.00 in 7.0 mi Calm Calm - N/A   Scattered Clouds
11:46 PM 75.2 °F - 75.2 °F 100% 30.00 in 7.0 mi Calm Calm - N/A   Scattered Clouds